BEIDOU-3 M9 (C23)

Last updated on Aug. 8, 2020, 5:33 a.m. UTC

1 43581U 18062A   20220.36189205  .00000011  00000-0  00000+0 0  9999
2 43581  54.5438 255.3860 0005962 255.8266 107.3267  1.86231907 13789
UTC
Height (km)
Latitude
Longitude
Inclination
Orbital Period
UTC large
Height (km)
Speed (km/s)
/
Latitude / Longitude
Inclination (degrees)
Orbital Period (minutes)
Azimuth
Elevation
Range (km)
Doppler Factor
iOS Compass Heading
iOS Angle

Next 30 passes for location: Hong Kong

Rise time Rise Azimuth (degrees) Set time Set Azimuth (degrees) Duration Max altitude (degrees)

No matching passes for this satellites